Météo par heure à Jumilla

Ce jour, 20 Juin, Dimanche

Heure Température Précipitation Vent Pression Humidité
00:00 +20°C° 0 mm 1 m/s 703 mmHg 69%
01:00 +20°C° 0 mm 1 m/s 703 mmHg 70%
02:00 +20°C° 0 mm 1 m/s 703 mmHg 71%
03:00 +19°C° 0 mm 1 m/s 702 mmHg 71%
04:00 +19°C° 0 mm 2 m/s 702 mmHg 68%
05:00 +19°C° 0 mm 2 m/s 702 mmHg 64%
06:00 +19°C° 0 mm 2 m/s 702 mmHg 61%
07:00 +20°C° 0 mm 3 m/s 702 mmHg 56%
08:00 +21°C° 0 mm 3 m/s 702 mmHg 50%
09:00 +22°C° 0 mm 4 m/s 703 mmHg 45%
10:00 +23°C° 0 mm 4 m/s 703 mmHg 40%
11:00 +25°C° 0 mm 4 m/s 703 mmHg 36%
12:00 +26°C° 0 mm 4 m/s 703 mmHg 31%
13:00 +27°C° 0 mm 4 m/s 703 mmHg 30%
14:00 +27°C° 0 mm 4 m/s 702 mmHg 28%
15:00 +28°C° 0 mm 4 m/s 702 mmHg 27%
16:00 +28°C° 0 mm 5 m/s 702 mmHg 28%
17:00 +28°C° 0 mm 5 m/s 702 mmHg 30%
18:00 +27°C° 0 mm 5 m/s 702 mmHg 31%
19:00 +26°C° 0 mm 5 m/s 702 mmHg 36%
20:00 +23°C° 0 mm 4 m/s 702 mmHg 41%
21:00 +22°C° 0 mm 4 m/s 702 mmHg 46%
22:00 +21°C° 0 mm 4 m/s 702 mmHg 48%
23:00 +21°C° 0 mm 4 m/s 702 mmHg 51%

Demain, 21 Juin, Lundi

Heure Température Précipitation Vent Pression Humidité
00:00 +20°C° 0 mm 3 m/s 702 mmHg 53%
01:00 +20°C° 0 mm 3 m/s 702 mmHg 57%
02:00 +19°C° 0 mm 3 m/s 702 mmHg 60%
03:00 +19°C° 0 mm 3 m/s 702 mmHg 64%
04:00 +19°C° 0 mm 3 m/s 702 mmHg 64%
05:00 +19°C° 0 mm 3 m/s 702 mmHg 64%
06:00 +19°C° 0 mm 2 m/s 702 mmHg 64%
07:00 +20°C° 0 mm 2 m/s 702 mmHg 59%
08:00 +21°C° 0 mm 2 m/s 702 mmHg 54%
09:00 +23°C° 0 mm 2 m/s 703 mmHg 49%
10:00 +24°C° 0 mm 2 m/s 703 mmHg 46%
11:00 +25°C° 0 mm 2 m/s 702 mmHg 42%
12:00 +26°C° 0 mm 2 m/s 702 mmHg 39%
13:00 +27°C° 0 mm 3 m/s 702 mmHg 37%
14:00 +28°C° 0 mm 4 m/s 702 mmHg 35%
15:00 +29°C° 0 mm 5 m/s 701 mmHg 33%
16:00 +28°C° 0 mm 5 m/s 701 mmHg 35%
17:00 +27°C° 0 mm 5 m/s 702 mmHg 37%
18:00 +26°C° 0 mm 4 m/s 702 mmHg 39%
19:00 +25°C° 0 mm 4 m/s 702 mmHg 40%
20:00 +24°C° 0 mm 3 m/s 702 mmHg 41%
21:00 +24°C° 0 mm 2 m/s 703 mmHg 42%
22:00 +22°C° 0 mm 3 m/s 703 mmHg 42%
23:00 +21°C° 0 mm 4 m/s 703 mmHg 43%

Après-demain, 22 Juin, Mardi

Heure Température Précipitation Vent Pression Humidité
00:00 +20°C° 0 mm 5 m/s 703 mmHg 43%
01:00 +19°C° 0 mm 4 m/s 702 mmHg 46%
02:00 +19°C° 0 mm 4 m/s 702 mmHg 49%
03:00 +18°C° 0 mm 4 m/s 702 mmHg 52%
04:00 +18°C° 0 mm 3 m/s 702 mmHg 53%
05:00 +18°C° 0 mm 3 m/s 703 mmHg 55%
06:00 +18°C° 0 mm 3 m/s 703 mmHg 56%
07:00 +19°C° 0 mm 3 m/s 703 mmHg 50%
08:00 +21°C° 0 mm 4 m/s 703 mmHg 45%
09:00 +22°C° 0 mm 4 m/s 704 mmHg 39%
10:00 +24°C° 0 mm 3 m/s 704 mmHg 36%
11:00 +25°C° 0 mm 2 m/s 704 mmHg 33%
12:00 +26°C° 0 mm 2 m/s 704 mmHg 30%
13:00 +27°C° 0 mm 2 m/s 704 mmHg 29%
14:00 +27°C° 0 mm 3 m/s 704 mmHg 29%
15:00 +28°C° 0 mm 3 m/s 703 mmHg 28%
16:00 +27°C° 0 mm 4 m/s 703 mmHg 32%
17:00 +26°C° 0 mm 6 m/s 703 mmHg 36%
18:00 +24°C° 0 mm 7 m/s 703 mmHg 39%
19:00 +23°C° 0 mm 5 m/s 704 mmHg 43%
20:00 +22°C° 0 mm 4 m/s 704 mmHg 46%
21:00 +21°C° 0 mm 3 m/s 704 mmHg 49%
22:00 +21°C° 0 mm 2 m/s 704 mmHg 53%
23:00 +20°C° 0 mm 2 m/s 704 mmHg 56%

23 Juin, Mercredi

Heure Température Précipitation Vent Pression Humidité
00:00 +21°C° 0 mm 1 m/s 704 mmHg 59%
01:00 +21°C° 0 mm 1 m/s 703 mmHg 61%
02:00 +20°C° 0 mm 1 m/s 703 mmHg 62%
03:00 +20°C° 0 mm 1 m/s 703 mmHg 63%
04:00 +20°C° 0 mm 1 m/s 703 mmHg 63%
05:00 +20°C° 0 mm 1 m/s 704 mmHg 63%
06:00 +20°C° 0 mm 1 m/s 704 mmHg 62%
07:00 +21°C° 0 mm 1 m/s 704 mmHg 57%
08:00 +21°C° 0 mm 2 m/s 704 mmHg 52%
09:00 +23°C° 0 mm 2 m/s 705 mmHg 47%
10:00 +25°C° 0 mm 2 m/s 705 mmHg 43%
11:00 +26°C° 0 mm 3 m/s 705 mmHg 40%
12:00 +27°C° 0 mm 4 m/s 705 mmHg 36%
13:00 +27°C° 0 mm 4 m/s 705 mmHg 37%
14:00 +27°C° 0 mm 5 m/s 705 mmHg 37%
15:00 +27°C° 0 mm 5 m/s 705 mmHg 38%
16:00 +26°C° 0 mm 5 m/s 705 mmHg 42%
17:00 +25°C° 0 mm 5 m/s 706 mmHg 46%
18:00 +25°C° 0 mm 5 m/s 706 mmHg 50%
19:00 +23°C° 0 mm 4 m/s 706 mmHg 54%
20:00 +22°C° 0 mm 3 m/s 706 mmHg 58%
21:00 +21°C° 0 mm 2 m/s 707 mmHg 62%
22:00 +20°C° 0 mm 2 m/s 707 mmHg 65%
23:00 +21°C° 0 mm 1 m/s 707 mmHg 68%

24 Juin, Jeudi

Heure Température Précipitation Vent Pression Humidité
00:00 +20°C° 0 mm 1 m/s 707 mmHg 71%
01:00 +20°C° 0 mm 1 m/s 707 mmHg 73%
02:00 +19°C° 0 mm 1 m/s 707 mmHg 76%
03:00 +19°C° 0 mm 1 m/s 706 mmHg 78%
04:00 +19°C° 0 mm 1 m/s 707 mmHg 77%
05:00 +19°C° 0 mm 1 m/s 707 mmHg 76%
06:00 +19°C° 0 mm 1 m/s 707 mmHg 75%
07:00 +21°C° 0 mm 1 m/s 708 mmHg 67%
08:00 +21°C° 0 mm 2 m/s 708 mmHg 60%
09:00 +23°C° 0 mm 2 m/s 708 mmHg 52%
10:00 +25°C° 0 mm 3 m/s 708 mmHg 47%
11:00 +26°C° 0 mm 3 m/s 708 mmHg 41%
12:00 +28°C° 0 mm 4 m/s 708 mmHg 36%
13:00 +28°C° 0 mm 5 m/s 708 mmHg 35%
14:00 +29°C° 0 mm 5 m/s 708 mmHg 34%
15:00 +29°C° 0 mm 5 m/s 708 mmHg 33%
16:00 +28°C° 0 mm 5 m/s 708 mmHg 38%
17:00 +27°C° 0 mm 5 m/s 708 mmHg 42%
18:00 +25°C° 0 mm 5 m/s 708 mmHg 47%
19:00 +23°C° 0 mm 4 m/s 708 mmHg 52%
20:00 +22°C° 0 mm 3 m/s 708 mmHg 58%
21:00 +21°C° 0 mm 2 m/s 708 mmHg 63%
22:00 +22°C° 0 mm 1 m/s 708 mmHg 65%
23:00 +21°C° 0 mm 1 m/s 708 mmHg 67%

25 Juin, Vendredi

Heure Température Précipitation Vent Pression Humidité
00:00 +21°C° 0 mm 1 m/s 708 mmHg 68%
01:00 +21°C° 0 mm 1 m/s 708 mmHg 70%
02:00 +20°C° 0 mm 1 m/s 708 mmHg 72%
03:00 +20°C° 0 mm 1 m/s 708 mmHg 73%
04:00 +20°C° 0 mm 1 m/s 708 mmHg 71%
05:00 +20°C° 0 mm 1 m/s 708 mmHg 70%
06:00 +20°C° 0 mm 1 m/s 708 mmHg 68%
07:00 +22°C° 0 mm 1 m/s 708 mmHg 60%
08:00 +24°C° 0 mm 2 m/s 709 mmHg 53%
09:00 +25°C° 0 mm 2 m/s 709 mmHg 45%
10:00 +26°C° 0 mm 3 m/s 709 mmHg 42%
11:00 +28°C° 0 mm 3 m/s 709 mmHg 38%
12:00 +29°C° 0 mm 4 m/s 709 mmHg 35%
13:00 +29°C° 0 mm 4 m/s 708 mmHg 35%
14:00 +29°C° 0 mm 5 m/s 708 mmHg 35%
15:00 +30°C° 0 mm 5 m/s 708 mmHg 35%
16:00 +29°C° 0 mm 5 m/s 708 mmHg 38%
17:00 +28°C° 0 mm 4 m/s 707 mmHg 41%
18:00 +27°C° 0 mm 4 m/s 707 mmHg 44%
19:00 +26°C° 0 mm 3 m/s 707 mmHg 49%
20:00 +25°C° 0 mm 2 m/s 707 mmHg 54%
21:00 +24°C° 0 mm 2 m/s 708 mmHg 58%
22:00 +23°C° 0 mm 2 m/s 708 mmHg 62%
23:00 +21°C° 0 mm 2 m/s 708 mmHg 66%
Voir plus

Nous avons besoin de votre consentement

Meteoprog et ses fournisseurs de services peuvent stocker et accéder à des données personnelles telles que des cookies, des identifiants d'appareils ou d'autres technologies similaires sur votre appareil et traiter ces données pour personnaliser le contenu et les publicités, ainsi que pour fournir des fonctionnalités de médias sociaux et analyser le trafic.

  • Stocker et/ou accéder à des informations sur votre appareil

    Des cookies, des identifiants d'appareils ou d'autres informations peuvent être stockés ou accessibles sur votre appareil aux fins indiquées ci-dessus.

  • Annonces et contenus personnalisés, mesure des annonces et des contenus, connaissance de l'audience et développement de produits

    Les annonces et le contenu peuvent être personnalisés en fonction d'un profil. D'autres données peuvent être ajoutées pour mieux personnaliser les annonces et le contenu. Les performances des publicités et du contenu peuvent être mesurées. Il est possible d'obtenir des informations sur le public qui a vu les publicités et le contenu. Ces données peuvent être utilisées pour développer ou améliorer l'expérience de l'utilisateur, les systèmes et les logiciels.

En cliquant sur "J'accepte", vous autorisez l'utilisation de cookies, des identifiants d'appareils, des balises web ou d'autres technologies similaires. Vos paramètres peuvent être modifiés dans le navigateur de votre appareil.

Dans certains cas, des intérêts légitimes peuvent être invoqués plutôt qu'un consentement. Vous pouvez en savoir plus à ce sujet dans notre Politique de confidentialité et de cookies.